Preview of NWS' New Version of Forecast
This preview is not operational and should not be used for support decisions.

Regional Weather Roundup (RWR)

Issued by National Weather Service (NWS)

                            
000
ASUS44 KMEG 192210
RWRTN 
TENNESSEE HOURLY STATE WEATHER ROUNDUP
NATIONAL WEATHER SERVICE MEMPHIS TN
500 PM CDT MON AUG 19 2019

TNZ002-004-019-021-049-052-054-088>092-192300-
WEST TENNESSEE
  
CITY           SKY/WX    TMP DP  RH WIND       PRES   REMARKS
MEMPHIS INTL   PTSUNNY   94  74  52 SE6       29.97F HX 104           
NWS MEMPHIS      N/A     93 N/A N/A MISG        N/A                   
JACKSON        FAIR      92  75  57 CALM      30.00S HX 103           
DYERSBURG      PTSUNNY   92  77  61 S3        29.99F HX 105           
SOMERVILLE     MOSUNNY   93  73  52 VRB3      29.98S HX 102           
COVINGTON      SUNNY     93  75  55 CALM      29.98S HX 104           
UNION CITY     SUNNY     93  75  55 SW5       29.97S HX 104           
BOLIVAR        SUNNY     91  73  55 NE5       29.98F HX 100           
PARIS          SUNNY     93  72  49 NW3       29.99R HX 100           
HUNTINGDON     PTSUNNY   93  73  52 CALM      29.99S HX 102           
LEXINGTON      SUNNY     93  72  49 VRB5      29.98S HX 100           
SAVANNAH       SUNNY     93  73  52 CALM      29.98S HX 102           
$$

TNZ008-025-027-028-033-062-065-066-192300-
NORTH MIDDLE TENNESSEE
  
CITY           SKY/WX    TMP DP  RH WIND       PRES   REMARKS
NASHVILLE      FAIR      94  64  37 E7        30.01S HX  95           
DICKSON        PTCLDY    93  66  40 CALM      29.99S HX  96           
PORTLAND       SUNNY     93  66  40 W5        30.00F HX  96           
CLARKSVILLE    FAIR      94  68  42 CALM      29.99S HX  98           
LEBANON        CLEAR     93  66  40 CALM      29.98S HX  96           
SMYRNA         FAIR      94  70  45 N5        30.01S HX 100           
MURFREESBORO   CLEAR     93  68  43 NE5       29.98S HX  97           
COOKEVILLE     SUNNY     91  68  46 CALM      30.02F HX  95           
LIVINGSTON     CLEAR     91  64  40 W6        30.04S HX  93           
GALLATIN       CLEAR     95  64  36 CALM      30.02S HX  97           
CROSSVILLE     CLOUDY    90  64  42 CALM      30.09S HX  91           
ROCKWOOD       CLEAR     90  68  48 CALM      30.06F HX  93           
$$

TNZ061-075-076-078-094-096-097-192300-
SOUTH MIDDLE TENNESSEE
  
CITY           SKY/WX    TMP DP  RH WIND       PRES   REMARKS
LAWRENCEBURG   CLEAR     88  73  62 CALM      30.01S HX  96           
LEWISBURG      PTCLDY    91  73  55 CALM      30.00R HX 100           
FAYETTEVILLE   MOSUNNY   86  70  58 SE6       30.02R HX  90           
TULLAHOMA      MOSUNNY   91  70  49 N7        30.02S HX  97           
WINCHESTER     MOSUNNY   81  72  74 SE9       30.04R                  
MCMINNVILLE    SUNNY     91  72  52 VRB3      30.02S HX  98           
COLUMBIA       SUNNY     93  70  46 CALM      29.98S HX  99           
SHELBYVILLE    SUNNY     91  70  49 CALM      30.01S HX  97           
$$

TNZ017-018-042-046-047-192300-
NORTHEAST TENNESSEE
  
CITY           SKY/WX    TMP DP  RH WIND       PRES   REMARKS
TRI CITIES     PTSUNNY   92  61  35 CALM      30.07S HX  92           
ELIZABETHTON   FAIR      84  68  58 VRB3      30.08R                  
GREENEVILLE    MOCLDY    84  66  54 VRB7      30.08R                  
$$

TNZ012-013-036-069-073-074-192300-
CENTRAL EAST TENNESSEE
  
CITY           SKY/WX    TMP DP  RH WIND       PRES   REMARKS
KNOXVILLE      PTSUNNY   90  64  42 CALM      30.02S THUNDER HX  91   
OAK RIDGE      PTSUNNY   92  68  45 CALM      30.03F HX  96           
DOWNTOWN KNOXV SUNNY     90  73  58 CALM      30.02S HX  98           
GATLINBURG     PTSUNNY   81  64  57 SW9       30.04R                  
MORRISTOWN     SUNNY     91  66  43 VRB3      30.04S HX  94           
JACKSBORO      SUNNY     91  70  49 S3        30.07S HX  97           
$$

TNZ083-085-099-192300-
SOUTHEAST TENNESSEE
  
CITY           SKY/WX    TMP DP  RH WIND       PRES   REMARKS
CHATTANOOGA    TSTM      83  70  64 E8        30.04S                  
DAYTON         CLEAR     93  63  36 CALM      29.99S HX  94           
$$

SKY/WX REPORTED AS FAIR MEANS FEW OR NO CLOUDS BELOW
12 THOUSAND FEET.